Wind_Speed
15 6 7 24 12 9 7 13 18 11 13 10 19 12 8 9 11 27 24 20 22 28 28 29 34 24 23 24 29 33 34 35 37 37 37 38 40 43 45 47 47 46 48 44
1 11 2 4 5 9 9 13 13 15 5 14 8 12 5 12 17 20 30 23 26 30 27 31 33 20 22 25 31 35 36 37 39 38 41 43 43 46 49 52 49 42 38 39
6 8 5 1 8 8 9 9 13 8 19 29 24 13 20 20 8 18 27 7 31 31 31 34 29 23 25 27 31 34 38 41 41 42 43 43 46 50 51 47 44 45 42 40
9 4 11 4 3 7 10 18 14 10 20 24 10 21 14 21 32 25 30 32 33 37 34 33 33 26 27 32 33 36 40 43 42 43 43 44 49 53 47 46 46 47 45 42
9 10 9 15 6 7 11 7 10 16 23 33 21 29 15 18 39 15 41 36 32 36 36 31 34 25 27 32 37 38 42 45 44 43 43 48 52 48 47 48 49 49 48 43
7 12 10 6 6 14 6 13 20 18 20 21 30 22 4 35 36 33 36 36 34 40 39 33 34 27 28 32 37 39 43 47 44 43 44 49 50 47 49 50 48 43 41 42
9 10 13 16 11 15 3 11 13 25 26 18 13 21 36 27 38 32 41 38 35 38 37 37 32 27 28 32 35 38 42 46 43 42 46 51 48 49 50 45 47 43 37 34
9 14 3 7 17 20 10 9 12 14 12 16 23 21 28 21 27 33 32 31 34 35 34 35 28 25 28 32 35 38 43 44 42 42 46 50 48 50 44 45 47 42 35 30
9 13 10 16 16 14 10 10 8 11 12 15 26 27 23 30 30 30 31 33 34 36 34 33 26 24 28 33 35 41 46 43 40 41 47 49 47 47 42 44 44 39 33 29
6 5 5 14 12 7 6 8 8 6 10 13 22 20 25 33 33 36 39 41 39 38 34 27 20 24 29 34 37 41 47 44 40 41 47 47 47 44 40 45 41 40 33 27
1 14 9 11 5 11 8 9 9 10 8 6 9 19 31 29 35 36 37 38 40 38 26 23 21 25 29 33 36 42 44 41 38 40 46 46 46 42 39 43 42 37 34 27
12 13 16 20 12 9 6 8 8 8 10 10 9 19 28 27 28 28 33 35 34 21 19 19 22 26 28 31 36 41 41 39 38 39 44 46 45 41 37 40 40 36 34 29
27 12 10 17 10 4 3 9 11 11 10 14 13 22 25 25 22 26 30 30 22 18 17 19 23 26 29 31 36 41 39 38 38 39 42 45 44 41 35 37 37 37 33 29
20 16 13 9 4 6 10 14 12 12 9 3 13 20 24 28 28 29 32 25 22 20 19 20 23 26 28 31 35 40 38 38 38 38 40 44 42 42 33 34 33 34 33 30
22 17 13 6 16 12 7 7 10 12 9 9 13 17 21 25 17 33 33 21 18 18 19 21 23 25 28 31 34 39 39 37 37 38 39 42 42 41 36 30 30 29 30 29
19 13 13 13 7 9 8 8 10 9 8 11 14 13 16 19 25 30 31 17 15 16 18 21 23 25 28 30 33 37 40 36 37 37 38 40 42 39 38 32 28 28 28 28
15 15 10 7 11 17 11 5 12 13 12 10 17 20 21 23 24 27 25 15 14 15 18 21 21 23 28 29 32 36 38 38 37 36 37 38 40 40 36 36 33 27 26 24
17 17 13 5 12 12 15 17 18 13 16 15 17 17 20 20 25 28 27 17 15 16 18 20 20 22 26 29 33 34 36 39 38 37 36 37 38 40 38 35 35 33 27 24
19 15 14 13 13 9 23 8 8 10 15 12 17 20 20 22 22 24 26 20 16 16 18 19 20 22 26 28 32 33 34 37 40 37 36 36 36 38 39 36 34 34 32 31
23 20 19 15 15 7 19 23 16 13 17 13 16 19 21 23 23 25 24 19 17 16 18 18 18 20 24 28 31 33 34 36 40 40 36 36 35 34 37 37 35 32 32 32
25 20 22 13 12 15 24 24 19 19 18 15 16 18 22 22 23 23 24 20 17 16 19 19 19 20 23 27 29 31 33 35 38 41 37 36 35 34 33 35 37 35 32 31
10 18 15 15 20 19 21 25 22 17 20 17 17 19 22 22 22 23 23 22 18 17 19 19 20 20 22 26 29 31 33 35 36 41 40 36 36 35 33 31 34 37 35 31
24 23 13 23 22 26 24 26 21 18 21 20 17 19 20 22 23 23 24 23 21 19 20 20 20 21 23 25 29 30 32 35 35 39 41 37 36 35 35 33 31 32 35 35
23 24 22 24 26 33 32 30 25 22 22 21 19 20 23 24 24 24 24 25 23 22 21 20 21 22 22 25 28 30 31 33 34 37 40 40 37 35 36 35 35 33 31 33
27 24 23 17 24 31 36 28 29 24 22 22 20 21 23 25 27 27 29 28 27 24 22 21 21 21 22 24 28 29 30 32 34 35 38 38 38 39 37 36 35 35 34 31
31 32 29 33 26 26 30 25 27 23 23 22 23 21 22 24 26 27 31 31 30 26 24 22 21 21 22 25 27 30 32 33 35 36 36 37 38 38 38 37 36 37 37 35
Wind_Direction
41 6 28 11 20 33 319 265 279 268 312 286 280 303 244 309 329 339 337 337 342 346 344 341 341 337 337 342 340 340 343 339 336 336 332 327 323 320 316 315 313 311 305 302
132 276 319 249 281 238 235 317 304 314 251 285 203 288 263 262 59 343 344 349 354 350 353 349 343 342 337 343 339 343 343 342 336 336 333 330 327 322 323 321 320 313 312 306
258 283 257 291 271 311 253 303 338 349 301 303 268 229 329 345 281 43 352 356 355 349 345 349 344 338 339 342 343 344 345 343 340 337 334 332 328 327 328 325 323 319 317 310
261 181 300 252 259 257 347 298 339 279 262 272 298 339 330 331 339 358 354 346 351 349 345 342 344 337 341 338 345 347 347 343 341 338 336 333 331 332 332 330 327 322 318 313
206 266 247 241 262 258 290 334 294 310 296 322 307 332 265 356 340 6 353 343 334 340 342 340 341 339 339 339 343 349 349 346 344 341 339 336 336 338 337 334 331 328 324 319
203 210 263 243 308 283 294 318 331 300 352 338 359 329 138 346 334 332 343 345 340 334 339 336 341 338 339 345 344 349 347 347 346 343 341 339 342 343 341 339 342 341 337 330
220 251 248 263 269 298 310 349 317 332 1 347 54 11 329 326 344 341 335 338 337 332 338 338 337 336 339 346 346 347 347 348 348 346 342 343 349 346 346 352 358 352 346 343
244 199 232 248 313 305 339 318 310 302 341 299 313 321 291 331 339 332 331 332 333 330 334 337 336 334 340 345 347 352 353 352 349 346 346 349 352 349 354 357 360 7 10 17
229 247 257 290 303 308 295 276 322 328 20 341 330 342 315 333 327 333 331 337 332 326 328 334 334 335 344 346 350 353 357 354 352 351 350 354 353 353 359 2 3 8 12 17
269 305 283 302 315 311 317 334 350 337 334 350 332 326 324 318 327 340 332 335 333 328 328 334 336 343 347 348 354 356 355 355 355 353 353 357 355 358 360 5 9 8 13 18
285 216 258 330 273 314 321 300 337 328 337 350 335 303 298 310 315 330 328 330 331 328 334 338 342 347 349 352 356 356 355 356 358 356 356 359 358 1 4 8 11 13 15 17
222 223 213 242 220 266 316 288 316 326 319 290 265 301 308 313 319 333 331 334 338 346 336 337 345 346 351 354 356 356 357 359 3 358 358 1 1 3 8 13 14 15 17 17
218 224 209 276 291 5 71 319 315 328 332 342 336 300 305 321 335 334 332 335 348 344 343 344 345 350 353 355 356 357 359 2 6 -0 360 3 4 5 9 15 16 16 18 17
206 204 213 313 31 292 302 321 334 343 358 324 293 310 310 332 333 340 341 338 343 347 348 346 346 352 354 355 357 358 1 4 8 6 1 4 7 7 9 13 17 19 18 18
217 211 194 235 257 285 261 269 263 295 322 321 287 283 331 318 320 325 333 331 335 345 347 346 348 352 354 355 357 359 2 5 8 9 5 4 8 9 10 9 14 15 16 12
217 194 201 217 296 282 294 270 300 314 330 309 321 315 311 309 311 330 331 317 332 342 344 344 348 352 355 354 356 358 3 4 9 10 10 5 8 10 10 7 6 11 15 17
213 210 241 238 226 269 304 298 259 311 315 320 312 327 332 326 331 337 337 316 328 337 340 341 348 352 354 353 356 358 2 5 7 10 13 9 5 10 11 10 8 1 7 15
216 221 228 219 298 297 282 303 285 298 308 325 315 324 329 327 332 336 339 322 318 329 335 340 346 351 353 353 355 358 359 4 7 9 12 13 7 6 12 10 9 11 5 0
236 235 232 243 250 258 287 297 279 293 304 320 320 324 331 332 333 333 333 327 317 321 330 337 342 349 349 352 354 356 357 2 7 7 10 13 12 6 6 11 10 10 11 10
250 242 239 237 241 250 269 263 281 289 290 316 319 321 328 331 331 331 332 327 316 315 325 334 336 341 345 348 353 355 355 359 4 7 7 10 13 11 5 4 11 11 9 10
245 249 247 240 266 245 255 268 277 279 299 306 315 319 321 329 327 329 330 325 318 311 322 329 331 334 339 345 348 353 355 356 360 4 5 6 9 12 10 4 3 10 12 9
229 242 257 243 235 260 264 268 276 279 286 296 307 313 317 325 325 327 331 327 320 309 317 323 325 326 334 340 344 348 354 355 355 359 2 3 5 7 10 9 4 2 6 12
264 262 241 269 245 257 257 272 275 279 283 289 298 304 309 316 323 329 331 326 317 303 309 314 317 322 330 338 341 344 349 352 352 354 358 359 2 3 5 7 8 5 360 3
254 256 257 248 249 254 261 277 284 280 282 284 292 298 305 313 318 323 326 322 313 298 299 308 314 319 326 333 337 339 344 348 349 351 353 355 355 357 359 3 5 6 4 359
261 271 261 268 258 253 267 270 276 284 282 282 287 295 304 311 315 320 323 321 315 305 295 300 308 313 320 328 332 335 339 343 345 346 349 349 348 350 354 357 357 360 3 3
253 260 264 265 277 275 277 285 287 284 285 284 285 292 300 305 309 314 315 315 312 307 297 292 300 307 315 322 327 330 333 336 339 340 342 345 345 344 345 346 350 353 355 358
Height
5938 5942 5943 5935 5942 5945 5948 5944 5941 5937 5935 5931 5924 5921 5920 5911 5891 5900 5903 5901 5898 5893 5890 5885 5881 5876 5873 5870 5865 5859 5853 5846 5839 5833 5826 5819 5812 5803 5796 5790 5782 5775 5764 5758
5941 5946 5947 5946 5945 5943 5942 5938 5938 5935 5930 5930 5911 5912 5916 5917 5885 5908 5899 5890 5889 5889 5887 5884 5877 5874 5872 5868 5862 5855 5849 5843 5834 5827 5819 5811 5804 5795 5786 5776 5768 5759 5754 5746
5947 5945 5944 5944 5945 5943 5940 5939 5938 5938 5931 5926 5914 5901 5913 5910 5912 5897 5904 5872 5889 5887 5883 5880 5876 5872 5868 5865 5860 5853 5845 5837 5829 5821 5814 5805 5796 5787 5778 5766 5758 5749 5742 5734
5945 5945 5943 5943 5942 5942 5944 5937 5937 5930 5928 5924 5918 5914 5910 5909 5906 5896 5905 5896 5888 5885 5881 5878 5874 5869 5865 5860 5856 5850 5843 5834 5825 5817 5808 5799 5790 5780 5769 5759 5749 5738 5731 5724
5947 5945 5943 5940 5938 5938 5939 5936 5932 5927 5926 5923 5915 5906 5899 5904 5901 5894 5896 5893 5890 5883 5881 5878 5872 5868 5864 5858 5851 5846 5839 5830 5821 5812 5803 5793 5783 5772 5762 5751 5740 5728 5717 5710
5943 5943 5939 5937 5938 5935 5937 5932 5932 5927 5920 5916 5911 5905 5885 5901 5906 5900 5897 5893 5886 5882 5879 5874 5870 5867 5863 5857 5850 5844 5836 5827 5818 5808 5798 5789 5778 5767 5756 5744 5733 5721 5710 5701
5942 5941 5939 5938 5938 5934 5934 5933 5932 5926 5922 5906 5911 5905 5907 5908 5903 5898 5895 5891 5888 5883 5878 5873 5869 5865 5861 5857 5850 5843 5835 5824 5814 5805 5796 5785 5773 5762 5750 5740 5728 5716 5705 5696
5941 5938 5938 5936 5936 5933 5931 5932 5930 5928 5926 5922 5920 5920 5909 5912 5910 5908 5903 5895 5889 5883 5878 5873 5869 5864 5859 5854 5848 5841 5832 5821 5811 5803 5793 5781 5770 5759 5747 5737 5726 5715 5705 5698
5929 5934 5934 5934 5933 5932 5930 5930 5928 5927 5927 5921 5918 5914 5909 5909 5908 5905 5898 5893 5888 5882 5877 5872 5867 5863 5857 5851 5845 5837 5828 5820 5810 5801 5790 5779 5769 5757 5746 5737 5726 5716 5708 5701
5924 5934 5934 5932 5932 5931 5930 5928 5928 5927 5927 5926 5920 5911 5908 5908 5906 5901 5893 5887 5883 5878 5873 5870 5866 5861 5856 5850 5843 5835 5826 5817 5808 5799 5789 5778 5768 5756 5747 5737 5727 5718 5710 5705
5930 5931 5934 5932 5931 5930 5930 5930 5926 5926 5925 5925 5924 5916 5910 5908 5903 5901 5894 5888 5880 5873 5870 5867 5864 5860 5855 5849 5842 5834 5825 5817 5808 5798 5788 5778 5767 5756 5747 5738 5730 5721 5714 5708
5929 5928 5932 5924 5923 5926 5926 5926 5925 5924 5923 5921 5921 5916 5911 5908 5904 5900 5893 5887 5880 5873 5870 5867 5863 5859 5854 5848 5841 5834 5825 5816 5807 5798 5788 5778 5768 5758 5749 5740 5732 5724 5717 5712
5924 5927 5928 5924 5929 5926 5925 5925 5923 5921 5921 5919 5917 5914 5909 5906 5902 5898 5892 5884 5880 5874 5870 5866 5862 5858 5853 5847 5841 5833 5824 5815 5806 5797 5788 5779 5769 5759 5751 5742 5735 5727 5720 5714
5921 5923 5924 5925 5925 5925 5925 5922 5921 5919 5918 5917 5915 5909 5905 5900 5895 5894 5888 5883 5878 5873 5870 5866 5861 5856 5852 5846 5840 5832 5824 5815 5806 5798 5789 5780 5771 5761 5752 5745 5737 5730 5723 5717
5918 5920 5922 5926 5923 5924 5923 5922 5921 5917 5917 5916 5914 5908 5903 5901 5896 5892 5886 5881 5877 5872 5869 5865 5861 5856 5851 5845 5839 5832 5824 5816 5807 5799 5790 5781 5772 5763 5754 5747 5740 5733 5726 5720
5915 5918 5919 5920 5922 5921 5919 5919 5916 5915 5914 5912 5909 5906 5903 5900 5894 5890 5883 5878 5875 5871 5867 5863 5859 5855 5849 5844 5838 5832 5824 5816 5808 5799 5791 5781 5773 5764 5756 5748 5742 5735 5728 5721
5912 5915 5916 5917 5917 5918 5917 5916 5916 5913 5912 5911 5906 5902 5899 5894 5890 5886 5881 5876 5872 5869 5866 5863 5858 5854 5849 5844 5838 5831 5825 5817 5809 5800 5791 5782 5774 5766 5759 5751 5743 5736 5730 5723
5910 5911 5914 5914 5915 5916 5914 5914 5912 5911 5909 5907 5904 5901 5897 5892 5887 5881 5876 5873 5871 5868 5864 5861 5857 5853 5848 5843 5837 5831 5824 5817 5809 5801 5792 5784 5776 5768 5761 5753 5746 5738 5731 5725
5907 5909 5910 5911 5913 5914 5910 5907 5908 5908 5907 5905 5902 5898 5894 5889 5885 5881 5875 5871 5868 5866 5863 5859 5855 5851 5847 5842 5837 5830 5824 5817 5809 5801 5793 5786 5778 5770 5762 5756 5748 5741 5733 5726
5903 5905 5906 5908 5908 5909 5904 5903 5905 5903 5902 5901 5898 5895 5891 5886 5882 5878 5874 5870 5866 5864 5861 5857 5854 5850 5846 5841 5835 5829 5823 5816 5809 5801 5794 5787 5780 5772 5765 5757 5751 5744 5736 5729
5897 5900 5901 5903 5904 5905 5901 5899 5901 5899 5900 5896 5894 5892 5888 5885 5880 5875 5871 5867 5863 5861 5858 5855 5852 5848 5844 5839 5834 5828 5821 5815 5809 5802 5795 5788 5781 5774 5767 5760 5752 5746 5739 5732
5890 5895 5897 5897 5898 5898 5893 5895 5897 5896 5892 5891 5890 5887 5884 5882 5878 5873 5868 5864 5860 5858 5855 5852 5849 5846 5842 5837 5833 5827 5821 5814 5808 5801 5795 5788 5781 5775 5768 5762 5755 5747 5741 5735
5888 5884 5889 5891 5892 5890 5889 5890 5891 5890 5888 5886 5885 5882 5880 5877 5872 5868 5864 5860 5857 5854 5851 5849 5846 5843 5840 5835 5831 5825 5820 5814 5808 5801 5794 5787 5781 5775 5769 5763 5756 5750 5743 5736
5886 5883 5886 5886 5887 5883 5884 5883 5885 5884 5883 5882 5880 5878 5875 5872 5868 5864 5860 5857 5853 5850 5848 5845 5842 5840 5837 5832 5828 5823 5818 5812 5806 5800 5793 5786 5780 5775 5769 5763 5756 5751 5744 5737
5878 5879 5878 5879 5879 5881 5876 5878 5877 5878 5877 5876 5875 5873 5871 5867 5863 5859 5856 5852 5848 5845 5843 5840 5838 5836 5833 5829 5824 5820 5815 5810 5804 5798 5792 5786 5780 5773 5768 5762 5757 5751 5744 5738
5871 5872 5874 5871 5875 5874 5871 5872 5870 5870 5869 5871 5869 5868 5865 5863 5859 5854 5850 5846 5842 5839 5837 5835 5833 5831 5828 5825 5821 5817 5812 5806 5801 5795 5790 5783 5777 5772 5766 5761 5756 5749 5743 5738